Weather Roundup
Issued by NWS

Home | Current Version | Previous Version | Text Only | Print | Product List | Glossary On
Versions: 1 2 3 4 5 6 7 8 9 10 11 12 13 14 15 16 17 18 19 20 21 22 23 24 25 26 27 28 29 30 31 32 33 34 35 36 37 38 39 40 41 42 43 44 45 46 47 48 49 50
000
NZUS93 KARX 271959
HRRWXR

CURRENT HOURLY OBSERVATIONS ACROSS
MUCH OF THE UPPER MISSISSIPPI VALLEY
NATIONAL WEATHER SERVICE LA CROSSE WI
300 PM CDT WED JUL 27 2016


...SOUTHEAST MINNESOTA...


CITY           SKY/WX    TMP DP  RH WIND       PRES   REMARKS
ROCHESTER      PTSUNNY   80  69  69 S17       29.98F
ROCHESTER/MAYO FAIR      80  64  57 S16       29.97S
WINONA         CLOUDY    81  66  61 S3        29.94F
AUSTIN         CLOUDY    79  66  65 S14       29.97F
ALBERT LEA     MOSUNNY   81  66  61 S12G17    29.97F
DODGE CENTER   CLOUDY    81  66  61 SW17      29.97S
PRESTON        CLOUDY    78  66  67 SW10      29.99F
OWATONNA       MOSUNNY   82  68  61 S13G18    29.95F
FARIBAULT      PTSUNNY   81  70  69 S13G18    29.95F
$$

...ELSEWHERE IN MINNESOTA...


CITY           SKY/WX    TMP DP  RH WIND       PRES   REMARKS
MINNEAPOLIS    CLOUDY    76  68  76 CALM      29.92F
INTNL FALLS    MOSUNNY   75  56  51 NE3       30.05S
DULUTH         LGT RAIN  65  57  75 E13       30.03S
RED WING       CLOUDY    84  66  54 S12G18    29.91F
REDWOOD FALLS  PTSUNNY   82  63  52 NW9       29.96S
MANKATO        CLOUDY    79  66  65 SW8       29.94F
WORTHINGTON    PTSUNNY   79  69  71 NW7       30.00F
FAIRMONT       PTSUNNY   82  66  57 SW9       29.95F
$$

...SOUTHWEST WISCONSIN...


CITY           SKY/WX    TMP DP  RH WIND       PRES   REMARKS
LA CROSSE      CLOUDY    84  68  58 S9        29.95F
PRAIRIE DU CHI CLOUDY    83  64  51 SW3       29.97F
BOSCOBEL       CLOUDY    85  67  54 S8        29.97F
LONE ROCK      NOT AVBL
PLATTEVILLE    MOSUNNY   83  66  55 SW7       30.00F
FORT MC COY    PTSUNNY   81  69  67 SW3       29.98S
MAUSTON-NEW LI CLOUDY    79  70  74 NE5       29.98S
VIROQUA        MOCLDY    81  67  63 SW5       30.00F
WIS DELLS      NOT AVBL
$$

...ELSEWHERE IN WISCONSIN...


CITY           SKY/WX    TMP DP  RH WIND       PRES   REMARKS
MILWAUKEE      CLOUDY    87  68  52 SE14      29.96F HX  90
MADISON        PTSUNNY   86  65  49 S6        29.97F
GREEN BAY      MOSUNNY   77  70  79 CALM      29.97F
EAU CLAIRE     NOT AVBL
BLACK RVR FLS  FAIR      83  67  56 SW6       29.96F
MEDFORD        CLOUDY    73  68  83 CALM      30.00F
WAUSAU         MOSUNNY   77  68  73 CALM      29.98F
WIS RAPIDS     CLOUDY    81  66  60 S8        29.99F
MARSHFIELD     LGT RAIN  82  69  64 S8        29.98F
RICE LAKE      CLOUDY    75  68  78 E3        29.98S
$$

...NORTHEAST IOWA...


CITY           SKY/WX    TMP DP  RH WIND       PRES   REMARKS
WATERLOO       CLOUDY    80  66  62 S7        29.97F
DUBUQUE        MOSUNNY   83  66  56 S6        29.99F
DECORAH        CLOUDY    81  68  65 VRB5      29.98F
MASON CITY     PTSUNNY   81  66  60 SW16      30.00F
CHARLES CITY   CLOUDY    81  70  69 SW8G14    30.00F
OELWEIN        CLOUDY    79  70  73 S5        30.00F
$$

...ELSEWHERE IN IOWA...


CITY           SKY/WX    TMP DP  RH WIND       PRES   REMARKS
DES MOINES     CLOUDY    83  69  62 SW6       29.96F
IOWA CITY      MOSUNNY   84  68  58 S5        29.97F
FORT DODGE     CLOUDY    81  70  69 SW6       30.00F
MARSHALLTOWN   CLOUDY    79  68  69 S3        29.97F
CEDAR RAPIDS   CLOUDY    82  70  66 S6        29.96F
$$

...NORTHERN ILLINOIS...


CITY           SKY/WX    TMP DP  RH WIND       PRES   REMARKS
CHICAGO-OHARE  PTSUNNY   87  63  44 VRB3      29.95F
CHICAGO-MIDWAY PTSUNNY   89  63  41 S8        29.94F HX  90
MOLINE         MOSUNNY   87  68  52 S7        29.95F HX  90
ROCKFORD       CLOUDY    86  65  49 S6        29.98F
PEORIA         MOSUNNY   87  71  58 VRB7      29.96F HX  93
$$

NOTE: "FAIR" INDICATES FEW OR NO CLOUDS BELOW 12,000 FEET WITH NO
SIGNIFICANT WEATHER AND/OR OBSTRUCTIONS TO VISIBILITY. WIND
SPEEDS ARE IN MILES-PER-HOUR.




USA.gov is the U.S. government's official web portal to all federal, state and local government web resources and services.